Location: Im Fang
(46.6019°N, 7.2397°E)
Time: 04:48:41
(UTC+00:00)

Cosmos 405 - Pass Details

Date: 08 December 2019
Orbit: 451 x 467 km, 81.3° (Epoch: 24 January)

Event Time Altitude Azimuth Distance (km) Brightness Sun altitude
Rises 06:23:13 0° 346° (NNW) 2,515 6.3 -6.6°
Reaches altitude 10° 06:25:19 10° 343° (NNW) 1,632 5.3 -6.3°
Maximum altitude 06:28:51 64° 262° (W) 521 3.0 -5.7°
Drops below altitude 10° 06:32:20 10° 181° (S) 1,610 6.1 -5.2°
Sets 06:34:25 0° 178° (S) 2,477 7.1 -4.9°
